sat.trackr.live / text

‹ back to catalog

STARLINK-35970

NORAD 66618 · 2025-271B

PAYLOAD ACTIVE UNKNOWN

§ Identity

Operator
Country
US
Launch date
2025-11-23
Launch site
AFWTR
Launch vehicle
Mass (kg)
RCS (m²)

Purposes: comms

External: N2YO · Heavens-Above · Gunter

§ Orbital elements

Epoch: 2026-05-24T23:54:05.601024Z

Period
94.10 min
Inclination
53.1599°
Eccentricity
0.0001528
Mean motion
15.30211984 rev/d
Perigee alt
474.1 km
Apogee alt
476.2 km
Semi-major
6,853.3 km
B*
4.3389e-4
RAAN
145.1987°
Arg perigee
68.0355°
Mean anomaly
292.0808°
Rev number
2,925

§ Raw data

STARLINK-359701 66618U 25271B   26144.99589816  .00012518  00000+0  43389-3 0  99922 66618  53.1599 145.1987 0001528  68.0355 292.0808 15.30211984 29250

JSON: /api/v1/satellites/66618 · /tle

For live sub-satellite position, see the globe view (requires WebGL).

§ Visibility from observer

Set your observer location to see the next 7 days of passes ≥ 10°. The values pass through the URL so the page stays shareable.

No JS? Fill the form by hand. The geolocation button needs JavaScript.